When you browse on this site, cookies collect data to enhance your experience and personalize the content and advertising you see.
Visit our Privacy Policy to learn more. By continuing to use the site, you agree to this use of cookies and data.
  • In Lithuania
  • List of Countries
  • For 7 days
  • Water Temperature
  • Satellite Maps
  • Weather Map
  • Weather Widgets
  • user-avatar
    Login

    Hourly Weather Mayrhofen

    Today, 20 May, Monday

    Time Temperature Precipitation Wind Pressure Humidity
    00:00 +4°C° 0.7 mm 1 mps 608 mmHg 94%
    01:00 +4°C° 0.7 mm 1 mps 608 mmHg 94%
    02:00 +4°C° 1.7 mm 1 mps 607 mmHg 95%
    03:00 +4°C° 1.7 mm 1 mps 607 mmHg 95%
    04:00 +4°C° 1.7 mm 1 mps 607 mmHg 95%
    05:00 +4°C° 2.5 mm 1 mps 607 mmHg 96%
    06:00 +4°C° 2.5 mm 1 mps 607 mmHg 96%
    07:00 +4°C° 2.5 mm 1 mps 607 mmHg 96%
    08:00 +4°C° 1.3 mm 1 mps 607 mmHg 95%
    09:00 +5°C° 1.3 mm 1 mps 607 mmHg 94%
    10:00 +5°C° 1.3 mm 1 mps 608 mmHg 94%
    11:00 +5°C° 1.1 mm 1 mps 608 mmHg 93%
    12:00 +6°C° 1.1 mm 1 mps 608 mmHg 93%
    13:00 +6°C° 1.1 mm 1 mps 608 mmHg 93%
    14:00 +6°C° 0.8 mm 1 mps 608 mmHg 93%
    15:00 +6°C° 0.8 mm 1 mps 609 mmHg 93%
    16:00 +6°C° 0.8 mm 1 mps 609 mmHg 93%
    17:00 +6°C° 1.4 mm 1 mps 609 mmHg 94%
    18:00 +5°C° 1.4 mm 1 mps 609 mmHg 94%
    19:00 +5°C° 1.4 mm 1 mps 609 mmHg 95%
    20:00 +4°C° 2.8 mm 2 mps 609 mmHg 95%
    21:00 +3°C° 2.8 mm 2 mps 609 mmHg 95%
    22:00 +3°C° 2.8 mm 2 mps 609 mmHg 96%
    23:00 +3°C° 2.5 mm 2 mps 609 mmHg 95%

    Tomorrow, 21 May, Tuesday

    Time Temperature Precipitation Wind Pressure Humidity
    00:00 +3°C° 2.5 mm 2 mps 610 mmHg 95%
    01:00 +3°C° 2.5 mm 2 mps 610 mmHg 95%
    02:00 +4°C° 1 mm 1 mps 610 mmHg 95%
    03:00 +4°C° 1 mm 1 mps 610 mmHg 95%
    04:00 +4°C° 1 mm 1 mps 610 mmHg 95%
    05:00 +4°C° 0.6 mm 1 mps 610 mmHg 95%
    06:00 +4°C° 0.6 mm 1 mps 611 mmHg 95%
    07:00 +5°C° 0.6 mm 1 mps 611 mmHg 95%
    08:00 +5°C° 0.5 mm 1 mps 612 mmHg 94%
    09:00 +6°C° 0.5 mm 1 mps 612 mmHg 92%
    10:00 +6°C° 0.5 mm 1 mps 613 mmHg 91%
    11:00 +6°C° 0.5 mm 1 mps 613 mmHg 90%
    12:00 +7°C° 0.5 mm 1 mps 613 mmHg 90%
    13:00 +7°C° 0.5 mm 1 mps 613 mmHg 89%
    14:00 +6°C° 0.2 mm 2 mps 614 mmHg 87%
    15:00 +7°C° 0.2 mm 2 mps 614 mmHg 85%
    16:00 +7°C° 0.2 mm 2 mps 614 mmHg 83%
    17:00 +6°C° 0.1 mm 2 mps 614 mmHg 86%
    18:00 +5°C° 0.1 mm 2 mps 614 mmHg 89%
    19:00 +5°C° 0.1 mm 2 mps 614 mmHg 92%
    20:00 +4°C° 0 mm 2 mps 614 mmHg 93%
    21:00 +4°C° 0 mm 1 mps 614 mmHg 94%
    22:00 +3°C° 0 mm 1 mps 614 mmHg 95%
    23:00 +3°C° 0 mm 1 mps 614 mmHg 94%

    Day after tomorrow, 22 May, Wednesday

    Time Temperature Precipitation Wind Pressure Humidity
    00:00 +3°C° 0 mm 1 mps 614 mmHg 93%
    01:00 +2°C° 0 mm 1 mps 614 mmHg 92%
    02:00 +3°C° 0.1 mm 1 mps 615 mmHg 91%
    03:00 +3°C° 0.1 mm 1 mps 615 mmHg 91%
    04:00 +4°C° 0.1 mm 1 mps 615 mmHg 91%
    05:00 +4°C° 0 mm 1 mps 615 mmHg 90%
    06:00 +5°C° 0 mm 1 mps 616 mmHg 89%
    07:00 +6°C° 0 mm 1 mps 616 mmHg 88%
    08:00 +6°C° 0.1 mm 1 mps 616 mmHg 86%
    09:00 +6°C° 0.1 mm 2 mps 617 mmHg 84%
    10:00 +7°C° 0.1 mm 2 mps 617 mmHg 82%
    11:00 +8°C° 0.1 mm 2 mps 618 mmHg 79%
    12:00 +8°C° 0.1 mm 2 mps 618 mmHg 76%
    13:00 +9°C° 0.1 mm 2 mps 618 mmHg 74%
    14:00 +9°C° 0.3 mm 2 mps 618 mmHg 75%
    15:00 +9°C° 0.3 mm 2 mps 618 mmHg 77%
    16:00 +9°C° 0.3 mm 3 mps 618 mmHg 79%
    17:00 +8°C° 0.2 mm 2 mps 618 mmHg 84%
    18:00 +7°C° 0.2 mm 2 mps 617 mmHg 88%
    19:00 +6°C° 0.2 mm 2 mps 617 mmHg 93%
    20:00 +5°C° 0 mm 2 mps 618 mmHg 95%
    21:00 +5°C° 0 mm 2 mps 618 mmHg 96%
    22:00 +4°C° 0 mm 2 mps 618 mmHg 98%
    23:00 +5°C° 0 mm 1 mps 618 mmHg 98%

    23 May, Thursday

    Time Temperature Precipitation Wind Pressure Humidity
    00:00 +5°C° 0 mm 1 mps 618 mmHg 97%
    01:00 +4°C° 0 mm 1 mps 618 mmHg 97%
    02:00 +4°C° 0 mm 1 mps 617 mmHg 96%
    03:00 +4°C° 0 mm 1 mps 617 mmHg 96%
    04:00 +3°C° 0 mm 1 mps 617 mmHg 96%
    05:00 +4°C° 0 mm 1 mps 617 mmHg 93%
    06:00 +5°C° 0 mm 1 mps 618 mmHg 90%
    07:00 +6°C° 0 mm 1 mps 618 mmHg 87%
    08:00 +6°C° 0 mm 2 mps 618 mmHg 85%
    09:00 +6°C° 0 mm 2 mps 618 mmHg 82%
    10:00 +7°C° 0 mm 2 mps 618 mmHg 80%
    11:00 +8°C° 0 mm 2 mps 619 mmHg 78%
    12:00 +8°C° 0 mm 2 mps 619 mmHg 75%
    13:00 +9°C° 0 mm 2 mps 619 mmHg 73%
    14:00 +9°C° 0 mm 2 mps 618 mmHg 74%
    15:00 +9°C° 0 mm 2 mps 618 mmHg 75%
    16:00 +9°C° 0 mm 3 mps 618 mmHg 75%
    17:00 +8°C° 0 mm 2 mps 618 mmHg 79%
    18:00 +7°C° 0 mm 2 mps 617 mmHg 83%
    19:00 +6°C° 0 mm 2 mps 617 mmHg 87%
    20:00 +6°C° 0 mm 1 mps 617 mmHg 90%
    21:00 +4°C° 0 mm 1 mps 617 mmHg 93%
    22:00 +3°C° 0 mm 1 mps 617 mmHg 96%
    23:00 +3°C° 0 mm 1 mps 616 mmHg 95%

    24 May, Friday

    Time Temperature Precipitation Wind Pressure Humidity
    00:00 +2°C° 0 mm 1 mps 616 mmHg 95%
    01:00 +2°C° 0 mm 1 mps 616 mmHg 94%
    02:00 +2°C° 0 mm 1 mps 616 mmHg 91%
    03:00 +1°C° 0 mm 1 mps 615 mmHg 89%
    04:00 +1°C° 0 mm 1 mps 615 mmHg 86%
    05:00 +3°C° 0 mm 1 mps 616 mmHg 80%
    06:00 +5°C° 0 mm 1 mps 617 mmHg 75%
    07:00 +6°C° 0 mm 0 mps 617 mmHg 69%
    08:00 +8°C° 0 mm 0 mps 618 mmHg 64%
    09:00 +10°C° 0 mm 0 mps 618 mmHg 59%
    10:00 +12°C° 0 mm 0 mps 618 mmHg 54%
    11:00 +13°C° 0 mm 1 mps 618 mmHg 53%
    12:00 +14°C° 0 mm 1 mps 618 mmHg 52%
    13:00 +15°C° 0 mm 1 mps 618 mmHg 50%
    14:00 +14°C° 0 mm 1 mps 617 mmHg 53%
    15:00 +14°C° 0 mm 2 mps 617 mmHg 55%
    16:00 +14°C° 0 mm 2 mps 616 mmHg 58%
    17:00 +12°C° 0 mm 2 mps 616 mmHg 66%
    18:00 +10°C° 0 mm 2 mps 615 mmHg 74%
    19:00 +8°C° 0 mm 2 mps 614 mmHg 82%
    20:00 +8°C° 0.4 mm 1 mps 614 mmHg 86%
    21:00 +7°C° 0.4 mm 1 mps 614 mmHg 91%
    22:00 +6°C° 0.4 mm 1 mps 613 mmHg 96%
    23:00 +6°C° 1.2 mm 1 mps 613 mmHg 96%

    25 May, Saturday

    Time Temperature Precipitation Wind Pressure Humidity
    00:00 +6°C° 1.2 mm 1 mps 613 mmHg 97%
    01:00 +6°C° 1.2 mm 1 mps 612 mmHg 97%
    02:00 +6°C° 2.8 mm 1 mps 612 mmHg 98%
    03:00 +5°C° 2.8 mm 2 mps 612 mmHg 98%
    04:00 +5°C° 2.8 mm 2 mps 612 mmHg 98%
    05:00 +4°C° 3.1 mm 2 mps 612 mmHg 98%
    06:00 +3°C° 3.1 mm 3 mps 613 mmHg 98%
    07:00 +3°C° 3.1 mm 3 mps 613 mmHg 98%
    08:00 +3°C° 1.2 mm 3 mps 613 mmHg 96%
    09:00 +3°C° 1.2 mm 3 mps 613 mmHg 94%
    10:00 +4°C° 1.2 mm 2 mps 614 mmHg 93%
    11:00 +5°C° 0.5 mm 2 mps 614 mmHg 89%
    12:00 +6°C° 0.5 mm 2 mps 615 mmHg 86%
    13:00 +5°C° 0.5 mm 3 mps 615 mmHg 82%
    14:00 +5°C° 0.2 mm 3 mps 615 mmHg 83%
    15:00 +5°C° 0.2 mm 3 mps 615 mmHg 83%
    16:00 +5°C° 0.2 mm 3 mps 615 mmHg 83%
    17:00 +5°C° 0.2 mm 3 mps 615 mmHg 86%
    18:00 +5°C° 0.2 mm 2 mps 615 mmHg 88%
    19:00 +5°C° 0.2 mm 2 mps 615 mmHg 91%
    20:00 +4°C° 0.1 mm 2 mps 615 mmHg 92%
    21:00 +4°C° 0.1 mm 1 mps 616 mmHg 94%
    22:00 +4°C° 0.1 mm 1 mps 616 mmHg 96%
    23:00 +3°C° 0 mm 1 mps 616 mmHg 95%
    Show more